Location: Bakov nad Jizerou
(50.4784°N, 14.9394°E)
Time: 15:23:15
(UTC+00:00)

Lacrosse 5 - Pass Details

Date: 16 June 2021
Orbit: 715 x 724 km, 57.0° (Epoch: 28 July)

Event Time Altitude Azimuth Distance (km) Brightness Sun altitude
Rises 21:06:42 0° 294° (WNW) 3,127 6.0 -11.9°
Reaches altitude 10° 21:10:02 10° 272° (W) 2,203 4.8 -12.2°
Maximum altitude 21:12:49 15° 238° (WSW) 1,885 4.0 -12.4°
Drops below altitude 10° 21:15:36 10° 204° (SSW) 2,198 4.0 -12.5°
Enters shadow 21:16:11 - 199° (SSW) 2,331 4.1 -12.6°
